, AK

(GMT )
Kotzebue

Weather History for PAOT - August, 2013

Change the Weather History Date:

Monday, August 26, 2013

  Actual Average Record
Temperature  
Mean Temperature 53 °F 50 °F  
Max Temperature 58 °F 54 °F 70 °F (1941)
Min Temperature 48 °F 45 °F 30 °F (1996)
Degree Days  
Heating Degree Days 12 15  
Month to date heating degree days 228 333  
Since 1 June heating degree days 915 1240  
Since 1 July heating degree days 490 659  
Cooling Degree Days 0    
Month to date cooling degree days 0  
Year to date cooling degree days 13  
Since 1 June cooling degree days 13  
Growing Degree Days 2 (Base 50)    
Moisture  
Dew Point 41 °F    
Average Humidity 65    
Maximum Humidity 88    
Minimum Humidity 36    
Precipitation  
Precipitation 0.03 in 0.07 in 0.75 in (1958)
Month to date precipitation 0.54 1.87  
Year to date precipitation 6.33 6.57  
Snow  
Snow 0.00 in 0.00 in 0.00 in (2015)
Month to date snowfall 0.0 0.0  
Since 1 June snowfall 0.0 0.0  
Since 1 July snowfall 0.0 0.0  
Snow Depth 0.00 in    
Sea Level Pressure  
Sea Level Pressure 29.72 in    
Wind  
Wind Speed 19 mph (ESE)    
Max Wind Speed 31 mph    
Max Gust Speed 37 mph    
Visibility 10 miles    
Events      
T = Trace of Precipitation, MM = Missing Value Source: NWS Daily Summary

Daily Weather History Graph

Daily Weather History Graph

Search for Another Location

Airport or City:

Trip Planner

Search our weather history database for the weather conditions in past years. The results will help you decide how hot, cold, wet, or windy it might be!

Date:

Astronomy

Aug. 26, 2013 Rise Set
Actual Time 7:02 AM AKDT 10:38 PM AKDT
Civil Twilight 5:56 AM AKDT 11:43 PM AKDT
Nautical Twilight 3:55 AM AKDT 1:37 AM AKDT
Astronomical Twilight Sun does not set Sun does not set
Moon 10:41 PM AKDT (8/26) 4:28 PM AKDT (8/26)
Length of Visible Light 17h 47m
Length of Day
15h 36m
Waning Gibbous, 65% of the Moon is Illuminated
Aug 26
Waning Gibbous
Aug 28
Last Quarter
Sep 5
New
Sep 12
First Quarter
Sep 19
Full

Hourly Weather History & Observations

Time (AKDT) Temp. Dew Point Humidity Pressure Visibility Wind Dir Wind Speed Gust Speed Precip Events Conditions
12:53 AM 52.0 °F 45.0 °F 77% 29.74 in 10.0 mi East 12.7 mph - N/A   Partly Cloudy
1:51 AM 52.0 °F 43.0 °F 71% 29.75 in 10.0 mi East 13.8 mph - N/A   Partly Cloudy
2:53 AM 51.1 °F 44.1 °F 77% 29.75 in 10.0 mi East 12.7 mph - N/A   Partly Cloudy
3:53 AM 50.0 °F 43.0 °F 77% 29.75 in 10.0 mi East 15.0 mph - N/A   Scattered Clouds
4:53 AM 50.0 °F 42.1 °F 74% 29.74 in 10.0 mi East 17.3 mph - N/A   Scattered Clouds
5:53 AM 50.0 °F 39.9 °F 68% 29.73 in 10.0 mi East 19.6 mph - N/A   Partly Cloudy
6:53 AM 48.9 °F 39.9 °F 71% 29.73 in 10.0 mi ESE 18.4 mph - N/A   Scattered Clouds
7:53 AM 48.0 °F 39.0 °F 71% 29.73 in 10.0 mi East 18.4 mph - N/A   Mostly Cloudy
8:53 AM 48.9 °F 37.9 °F 66% 29.74 in 10.0 mi East 21.9 mph - N/A   Mostly Cloudy
9:53 AM 50.0 °F 37.4 °F 62% 29.73 in 10.0 mi East 23.0 mph 32.2 mph N/A   Clear
10:53 AM 51.8 °F 37.4 °F 58% 29.73 in 10.0 mi East 24.2 mph 31.1 mph N/A   Clear
11:53 AM 51.8 °F 37.4 °F 58% 29.73 in 10.0 mi ESE 26.5 mph 33.4 mph N/A   Clear
12:53 PM 54.0 °F 37.9 °F 55% 29.73 in 10.0 mi ESE 25.3 mph 34.5 mph N/A   Clear
1:53 PM 55.0 °F 37.9 °F 53% 29.73 in 10.0 mi ESE 27.6 mph - N/A   Clear
2:53 PM 55.9 °F 37.9 °F 51% 29.73 in 10.0 mi ESE 25.3 mph 33.4 mph N/A   Overcast
3:59 PM 57.2 °F 37.4 °F 48% 29.72 in 10.0 mi ESE 27.6 mph 43.7 mph N/A   Overcast
4:53 PM 57.2 °F 39.2 °F 51% 29.71 in 10.0 mi ESE 27.6 mph 34.5 mph N/A   Overcast
5:52 PM 57.2 °F 42.8 °F 59% 29.69 in 10.0 mi East 18.4 mph 28.8 mph N/A   Overcast
6:50 PM 57.2 °F 41.0 °F 55% 29.69 in 10.0 mi ESE 17.3 mph 25.3 mph N/A   Overcast
7:53 PM 55.4 °F 44.6 °F 67% 29.69 in 10.0 mi SE 13.8 mph - N/A   Overcast
8:50 PM 55.4 °F 46.4 °F 72% 29.68 in 10.0 mi ESE 11.5 mph - N/A   Overcast
9:53 PM 53.6 °F 46.4 °F 77% 29.68 in 10.0 mi ESE 12.7 mph - N/A   Overcast
10:53 PM 53.6 °F 46.4 °F 77% 29.68 in 10.0 mi SE 9.2 mph - N/A   Overcast
11:45 PM 53.6 °F 50.0 °F 88% 29.67 in 10.0 mi SE 11.5 mph - N/A   Overcast